User: anonymous   Login
Location: Arpaise
(41.0333°N, 14.7333°E)
Time: 16:46:34
(UTC+00:00)
Language:

Cosmos 846 Rocket - Orbit

View from above orbital plane
View from above orbital plane
View from above satellite
View from above satellite

Ground track
Ground track

The orbit data is extracted from the following two-line orbital elements,

1 09062U 76078B   21129.17017346  .00000124  00000-0  10748-3 0  9999
2 09062  82.9310 327.5351 0028405 189.9942 308.7081 13.78421520251502
Epoch (UTC): 09 May 2021 04:05:02
Eccentricity: 0.0028405
inclination: 82.9310°
perigee height: 948 km
apogee height: 990 km
right ascension of ascending node: 327.5351°
argument of perigee: 189.9942°
revolutions per day: 13.78421520
mean anomaly at epoch: 308.7081°
orbit number at epoch: 25150

The dashed part of the orbit path shows where the satellite is in the earth's shadow,  

DLR